[[{"header":{"parameterUnit":"m.s-1","parameterCategory":1,"la1":30.2991,"la2":30.254,"lo1":-89.0895,"lo2":-89.0444,"dy":0.0017,"dx":0.0017,"nx":28,"ny":28,"refTime":"2023-09-24T09:00:00:Z","depth":0,"parameterNumber":2,"parameterNumberName":"U-component_of_WINDS"},"data":[0,0,0,0,0,0,0,0,0,0,0,0,0,0,0,0,0,0,0,0,0,0,0,0,0,0,0,0,0,0,0,0,0,0,0,0,0,0,0,0,0,0,0,0,0,0,0,0,0,0,0,0,0,0,0,0,0,0,-0.0857,-0.0856,0,-0.0766,-0.0765,-0.0763,-0.0717,-0.0717,-0.0717,-0.0717,-0.0623,-0.062,-0.0618,0,0,0,0,0,0,0,0,0,0,0,0,0,-0.0994,-0.0992,-0.0857,-0.0856,-0.0855,-0.0766,-0.0764,-0.0763,-0.0717,-0.0717,-0.0717,-0.0717,-0.0624,-0.0621,-0.0618,0,0,0,0,0,0,0,0,0,0,0,0,0,-0.0922,-0.0991,-0.0858,-0.0821,-0.0817,-0.0766,-0.0764,-0.0763,-0.0717,-0.0717,-0.0717,-0.0717,-0.0625,-0.0621,-0.0617,-0.0596,0,0,-0.0606,-0.0604,0,0,0,0,0,0,0,0,-0.0926,-0.0917,-0.0828,-0.0824,-0.0819,-0.0752,-0.0778,-0.0707,-0.0717,-0.0755,-0.0717,-0.0717,-0.0666,-0.0659,-0.0642,-0.0591,-0.0587,-0.0606,-0.0603,-0.0602,-0.0601,0,0,0,0,0,0,0,-0.0931,-0.0921,-0.0821,-0.0826,-0.0821,-0.081,-0.08,-0.0764,-0.0712,-0.0751,-0.0748,-0.0738,-0.0664,-0.0646,-0.0639,-0.0586,-0.0606,-0.0603,-0.06,-0.0599,-0.0515,-0.0515,0,0,0,0,0,0,-0.0942,-0.0925,-0.0824,-0.0818,-0.0873,-0.0807,-0.0796,-0.0774,-0.0712,-0.0703,-0.0738,-0.0736,-0.0652,-0.0644,-0.0636,-0.0607,-0.0602,-0.0598,-0.0596,-0.0515,-0.0515,-0.0515,0,0,0,0,0,0,-0.0945,-0.0933,-0.0828,-0.0871,-0.0856,-0.0805,-0.0781,-0.0772,-0.0754,-0.0702,-0.0692,-0.0729,-0.0651,-0.0641,-0.0606,-0.0603,-0.0597,-0.0593,-0.0515,-0.0515,-0.0515,-0.0549,0,0,0,0,0,0,-0.0949,-0.0935,-0.0925,-0.0871,-0.0854,-0.0799,-0.0781,-0.077,-0.0748,-0.0744,-0.0691,-0.0682,-0.0651,-0.0612,-0.0603,-0.0598,-0.0591,-0.0515,-0.0515,-0.0515,-0.0548,-0.0551,-0.0553,0,0,0,0,0,-0.0954,-0.0939,-0.0925,-0.0913,-0.0842,-0.0799,-0.079,-0.0754,-0.0748,-0.0738,-0.0705,-0.0684,-0.0605,-0.0609,-0.0598,-0.0592,-0.0515,-0.0515,-0.0515,-0.0547,-0.055,-0.0553,0,0,0,0,0,0,-0.0994,-0.0931,-0.0915,-0.0881,-0.0846,-0.0792,-0.0778,-0.0758,-0.0724,-0.0722,-0.0679,-0.0667,-0.0637,-0.0611,-0.0616,-0.0569,-0.0558,-0.0556,-0.0587,-0.0589,-0.0591,-0.0598,-0.0587,0,0,0,0,0,-0.0999,-0.097,-0.0916,-0.0892,-0.0875,-0.083,-0.081,-0.0786,-0.0747,-0.0732,-0.0696,-0.066,-0.0628,-0.0607,-0.0574,-0.0545,-0.0533,-0.0535,-0.0538,-0.054,-0.0538,-0.0522,-0.0523,-0.0514,-0.0514,-0.0514,0,0,-0.1009,-0.0971,-0.0955,-0.0899,-0.0868,-0.084,-0.0818,-0.0787,-0.0766,-0.0728,-0.0693,-0.0666,-0.0622,-0.0591,-0.0575,-0.0568,-0.0538,-0.0539,-0.0541,-0.0539,-0.0522,-0.0523,-0.0524,-0.0514,-0.0514,-0.0514,0,0,-0.1012,-0.098,-0.0956,-0.0927,-0.0881,-0.0852,-0.0847,-0.0795,-0.0776,-0.074,-0.0711,-0.0685,-0.0629,-0.06,-0.0578,-0.0572,-0.0552,-0.0563,-0.0574,-0.0559,-0.0559,-0.056,-0.0558,-0.0558,-0.0562,-0.0562,-0.0562,0,-0.103,-0.0984,-0.0947,-0.0919,-0.0896,-0.086,-0.0837,-0.081,-0.0756,-0.0741,-0.0735,-0.0665,-0.0633,-0.0595,-0.0594,-0.0577,-0.057,-0.0568,-0.0562,-0.0562,-0.0562,-0.056,-0.056,-0.0563,-0.0563,-0.0563,-0.0563,0,-0.1009,-0.0978,-0.0965,-0.0914,-0.089,-0.0864,-0.0823,-0.0803,-0.0781,-0.0753,-0.0718,-0.0679,-0.0638,-0.0628,-0.0606,-0.0587,-0.0584,-0.057,-0.0559,-0.0565,-0.0563,-0.0562,-0.0566,-0.0565,-0.0565,-0.0564,0,0,-0.1034,-0.0964,-0.0959,-0.0936,-0.0885,-0.086,-0.0834,-0.0794,-0.0778,-0.0743,-0.072,-0.0674,-0.0662,-0.0637,-0.0612,-0.0598,-0.0598,-0.0586,-0.0585,-0.059,-0.0575,-0.0586,-0.0586,-0.0584,-0.0584,-0.0583,-0.0579,0,-0.103,-0.098,-0.0946,-0.0909,-0.0881,-0.0848,-0.0825,-0.0791,-0.0765,-0.0737,-0.0708,-0.0677,-0.0662,-0.0647,-0.0633,-0.0601,-0.0594,-0.0601,-0.0563,-0.0562,-0.0574,-0.0584,-0.0595,-0.0592,-0.0578,-0.0577,-0.0577,0,-0.1018,-0.0984,-0.0945,-0.0897,-0.0884,-0.0864,-0.0825,-0.0799,-0.0761,-0.0743,-0.0716,-0.0691,-0.0662,-0.0654,-0.0614,-0.062,-0.0602,-0.0585,-0.0584,-0.0579,-0.057,-0.058,-0.0591,-0.0591,-0.0575,-0.0575,-0.0576,0,-0.104,-0.0985,-0.0954,-0.0936,-0.0879,-0.0866,-0.0842,-0.0804,-0.0783,-0.0749,-0.0735,-0.0699,-0.0679,-0.0652,-0.0618,-0.0615,-0.0583,-0.0571,-0.0568,-0.0569,-0.0562,-0.0563,-0.0571,-0.0551,-0.0551,-0.0551,-0.0551,0,-0.1039,-0.1016,-0.0964,-0.0945,-0.092,-0.0882,-0.0857,-0.0831,-0.0797,-0.0774,-0.0743,-0.0722,-0.0678,-0.0652,-0.0625,-0.0597,-0.0588,-0.0573,-0.0566,-0.0576,-0.0578,-0.0564,-0.0563,-0.0551,-0.0551,-0.0551,-0.0551,0,-0.1059,-0.1023,-0.0988,-0.0938,-0.0925,-0.0908,-0.0866,-0.0847,-0.0819,-0.079,-0.0781,-0.0737,-0.0705,-0.0668,-0.0624,-0.0606,-0.058,-0.057,-0.0593,-0.0589,-0.0588,-0.0589,-0.0587,-0.0585,-0.0567,-0.0567,-0.0567,0,-0.1061,-0.1043,-0.0991,-0.0973,-0.095,-0.0921,-0.0899,-0.0862,-0.0841,-0.0797,-0.0784,-0.0749,-0.0719,-0.0669,-0.0634,-0.06,-0.0589,-0.0591,-0.0584,-0.0594,-0.059,-0.0591,-0.059,-0.0593,-0.0593,-0.0594,-0.0594,0,-0.1067,-0.1051,-0.102,-0.0984,-0.096,-0.0929,-0.0898,-0.0885,-0.0842,-0.082,-0.0787,-0.0764,-0.0719,-0.0685,-0.0647,-0.0623,-0.0602,-0.0597,-0.0594,-0.0604,-0.0618,-0.0611,-0.0599,-0.0597,-0.0596,-0.0596,-0.0596,-0.0596,-0.1078,-0.1061,-0.1023,-0.099,-0.0963,-0.0935,-0.0915,-0.0886,-0.0857,-0.0817,-0.0797,-0.0765,-0.0728,-0.0675,-0.0652,-0.0626,-0.0619,-0.0615,-0.0614,-0.0614,-0.0617,-0.0622,-0.0619,-0.0619,-0.0619,-0.0619,-0.0619,0,-0.1084,-0.1058,-0.1029,-0.0986,-0.0961,-0.0944,-0.0909,-0.0889,-0.086,-0.0828,-0.08,-0.0763,-0.073,-0.0693,-0.0659,-0.0645,-0.0635,-0.0638,-0.0638,-0.0633,-0.0625,-0.0631,-0.0647,-0.0647,-0.0647,-0.0647,-0.0647,-0.0647,-0.1084,-0.1054,-0.1034,-0.0991,-0.0965,-0.0932,-0.0914,-0.0889,-0.0863,-0.0822,-0.0795,-0.0772,-0.0738,-0.0701,-0.0671,-0.0661,-0.065,-0.0656,-0.0643,-0.0636,-0.0634,-0.0631,-0.0637,-0.0654,-0.0654,-0.0654,-0.0654,-0.0654]},{"header":{"parameterUnit":"m.s-1","parameterCategory":1,"la1":30.2991,"la2":30.254,"lo1":-89.0895,"lo2":-89.0444,"dy":0.0017,"dx":0.0017,"nx":28,"ny":28,"refTime":"2023-09-24T09:00:00:Z","depth":0,"parameterNumber":3,"parameterNumberName":"V-component_of_WINDS"},"data":[0,0,0,0,0,0,0,0,0,0,0,0,0,0,0,0,0,0,0,0,0,0,0,0,0,0,0,0,0,0,0,0,0,0,0,0,0,0,0,0,0,0,0,0,0,0,0,0,0,0,0,0,0,0,0,0,0,0,4.0146,4.0145,0,4.0058,4.0057,4.0056,4.0023,4.0023,4.0023,4.0023,3.9925,3.9922,3.9919,0,0,0,0,0,0,0,0,0,0,0,0,0,4.0278,4.0276,4.0146,4.0145,4.0144,4.0058,4.0057,4.0055,4.0023,4.0023,4.0023,4.0024,3.9926,3.9923,3.9919,0,0,0,0,0,0,0,0,0,0,0,0,0,4.0208,4.0275,4.0146,4.0117,4.0114,4.0058,4.0057,4.0055,4.0022,4.0023,4.0023,4.0024,3.9927,3.9923,3.9919,3.9883,0,0,3.9905,3.9904,0,0,0,0,0,0,0,0,4.0212,4.0204,4.0122,4.0119,4.0115,4.0052,4.0067,3.9997,4.0022,4.0057,4.0023,4.0024,3.9966,3.9959,3.9941,3.9878,3.9874,3.9905,3.9902,3.9901,3.9899,0,0,0,0,0,0,0,4.0217,4.0207,4.0111,4.0121,4.0117,4.0106,4.0097,4.0054,4.001,4.0054,4.0051,4.0042,3.9964,3.9945,3.9938,3.9873,3.9905,3.9901,3.9899,3.9897,3.9776,3.9775,0,0,0,0,0,0,4.0228,4.0211,4.0113,4.0108,4.0166,4.0103,4.0093,4.0071,4.001,4.0002,4.0041,4.0041,3.9953,3.9944,3.9935,3.9889,3.9901,3.9896,3.9894,3.9777,3.9776,3.9775,0,0,0,0,0,0,4.0231,4.022,4.0117,4.0159,4.0145,4.0101,4.0077,4.007,4.0051,4.0001,3.9992,4.0031,3.9953,3.9941,3.9897,3.9885,3.9895,3.9891,3.9777,3.9776,3.9776,3.9797,0,0,0,0,0,0,4.0235,4.0221,4.0209,4.0159,4.0143,4.0083,4.0076,4.0067,4.0044,4.0042,3.9989,3.998,3.9952,3.9903,3.9892,3.9879,3.9887,3.9778,3.9777,3.9776,3.9797,3.9797,3.9797,0,0,0,0,0,4.024,4.0216,4.0208,4.0196,4.0127,4.0082,4.0073,4.0043,4.0043,4.0029,3.9998,3.9982,3.9889,3.9899,3.9886,3.9872,3.9779,3.9777,3.9776,3.9797,3.9797,3.9797,0,0,0,0,0,0,4.0262,4.0209,4.0199,4.016,4.0126,4.0077,4.0058,4.0044,4.0007,4.0006,3.9969,3.9957,3.9916,3.9889,3.9902,3.9834,3.9832,3.9828,3.9853,3.9852,3.9852,3.9859,3.9884,0,0,0,0,0,4.0263,4.0234,4.0188,4.0157,4.0141,4.0103,4.0082,4.0063,4.0025,4.0009,3.9974,3.9936,3.9898,3.9874,3.9836,3.9794,3.9781,3.9777,3.9777,3.9778,3.9774,3.9749,3.9747,3.9771,3.9771,3.9771,0,0,4.0263,4.0231,4.0214,4.0161,4.0132,4.01,4.0091,4.0057,4.0032,4.0003,3.996,3.9933,3.9888,3.9845,3.9824,3.9821,3.9765,3.9776,3.9776,3.9773,3.9748,3.9746,3.9744,3.977,3.977,3.977,0,0,4.0248,4.0221,4.0193,4.0165,4.0123,4.0098,4.0092,4.0045,4.0027,3.9984,3.9961,3.993,3.9866,3.9835,3.981,3.9785,3.9768,3.9773,3.9772,3.9749,3.9747,3.9745,3.9735,3.9732,3.977,3.977,3.977,0,4.0253,4.0206,4.0179,4.0147,4.0124,4.01,4.007,4.0043,3.999,3.9974,3.9973,3.9892,3.986,3.9809,3.9803,3.9785,3.9774,3.9779,3.975,3.9748,3.9745,3.9736,3.9732,3.9771,3.9771,3.9771,3.9771,0,4.0214,4.0182,4.0164,4.0117,4.0092,4.0061,4.0027,4.0004,3.9987,3.9962,3.9917,3.9878,3.9833,3.9819,3.9801,3.9766,3.9766,3.9758,3.9755,3.9745,3.9735,3.9731,3.9773,3.9772,3.9772,3.9772,0,0,4.0209,4.0149,4.0143,4.0121,4.0074,4.0048,4.0015,3.9974,3.9954,3.9919,3.9889,3.9836,3.9829,3.9802,3.978,3.9759,3.9741,3.9754,3.9752,3.9752,3.9699,3.9705,3.9702,3.9731,3.973,3.9729,3.9703,0,4.0187,4.0131,4.0106,4.006,4.003,4.0007,3.9979,3.9945,3.9921,3.9889,3.9861,3.9824,3.9818,3.9801,3.978,3.9748,3.973,3.975,3.9701,3.97,3.9713,3.9697,3.9702,3.9679,3.9699,3.9698,3.9698,0,4.0154,4.0122,4.0074,4.0031,4.0017,3.9993,3.9953,3.9924,3.9885,3.9868,3.9839,3.9819,3.9782,3.9783,3.973,3.9744,3.9723,3.9704,3.9702,3.9696,3.9698,3.9689,3.9671,3.9668,3.9692,3.9692,3.9693,0,4.0155,4.0099,4.0063,4.0046,3.9995,3.9978,3.9956,3.9918,3.9895,3.9859,3.9843,3.9802,3.978,3.9748,3.9716,3.972,3.9666,3.9665,3.965,3.9651,3.9639,3.964,3.9617,3.9626,3.9626,3.9626,3.9627,0,4.0132,4.0104,4.0063,4.0041,4.0008,3.9979,3.9946,3.9922,3.9889,3.986,3.9836,3.9809,3.977,3.9737,3.9712,3.9672,3.9661,3.9646,3.9639,3.9648,3.965,3.9632,3.9633,3.9626,3.9626,3.9626,3.9626,0,4.0127,4.0099,4.0059,4.0016,4.0004,3.9981,3.9943,3.9919,3.9895,3.9859,3.9848,3.9808,3.9768,3.9734,3.9681,3.9664,3.9623,3.9615,3.9637,3.9633,3.9621,3.9622,3.9585,3.9579,3.9593,3.9593,3.9593,0,4.0115,4.0093,4.0048,4.0029,4.0008,3.9976,3.9953,3.9923,3.99,3.9855,3.9837,3.9796,3.9762,3.97,3.9664,3.9623,3.9614,3.9604,3.9607,3.9617,3.9613,3.9615,3.9612,3.9603,3.9603,3.9603,3.9603,0,4.0095,4.0083,4.0053,4.0017,3.9992,3.9961,3.993,3.9915,3.9879,3.9853,3.9814,3.9788,3.9736,3.9695,3.9651,3.9625,3.9607,3.9603,3.9597,3.9605,3.9619,3.9611,3.9636,3.9604,3.9604,3.9604,3.9604,3.9604,4.0086,4.0065,4.0031,3.9998,3.9972,3.9944,3.9921,3.9894,3.9862,3.9819,3.9802,3.9762,3.9724,3.9663,3.9637,3.9604,3.9601,3.9593,3.959,3.9589,3.959,3.9625,3.9595,3.9595,3.9595,3.9595,3.9595,0,4.0065,4.0042,4.0012,3.9971,3.9945,3.9935,3.99,3.9877,3.9844,3.981,3.9779,3.9733,3.9694,3.9657,3.9615,3.9595,3.9586,3.9585,3.9586,3.958,3.9595,3.9604,3.9594,3.9594,3.9594,3.9594,3.9594,3.9594,4.0051,4.0016,4.0,3.9952,3.9929,3.9892,3.9873,3.9846,3.982,3.9772,3.974,3.9717,3.9682,3.9638,3.9601,3.959,3.9576,3.9577,3.9564,3.9579,3.9579,3.958,3.9588,3.9574,3.9574,3.9552,3.9552,3.9552]}]]